Regional Weather Roundup
Issued by NWS

Home | Current Version | Previous Version | Graphics & Text | Print | Product List | Glossary On
Versions: 1 2 3 4 5 6 7 8 9 10 11 12 13 14 15 16 17 18 19 20 21 22 23 24 25 26 27 28 29 30 31 32 33 34 35 36 37 38 39 40 41 42 43 44 45 46 47 48 49 50
000
ASUS43 KMKX 011421
RWRWI

WISCONSIN REGIONAL WEATHER ROUNDUP
NATIONAL WEATHER SERVICE MILWAUKEE/SULLIVAN WI
900 AM CDT SUN MAY 01 2016

NOTE: "FAIR" INDICATES FEW OR NO CLOUDS BELOW 12,000 FEET WITH NO
SIGNIFICANT WEATHER AND/OR OBSTRUCTIONS TO VISIBILITY.

WIZ001-002-006>008-014>016-023>028-011500-
NORTHWEST WISCONSIN

CITY           SKY/WX    TMP DP  RH WIND       PRES   REMARKS
SUPERIOR ARPT  CLOUDY    43  34  70 E10G17    30.27R
ASHLAND        CLOUDY    41  37  86 NE10      30.25R
HAYWARD        CLOUDY    42  35  76 NE14      30.21R
SIREN          MOSUNNY   44  34  67 NE12G17   30.20S
CUMBERLAND     SUNNY     43  34  70 NE10      30.17S
RICE LAKE      SUNNY     44  36  72 N10       30.18S
CHETEK         SUNNY     46  35  64 NE6       30.16S
LADYSMITH      MOSUNNY   45  36  70 N8        30.18R
EAU CLAIRE     CLOUDY    47  35  63 NE10      30.14R
MENOMONIE      SUNNY     48  35  60 N8        30.15S
NEW RICHMOND   SUNNY     46  35  66 NE12      30.17S
OSCEOLA        MOSUNNY   46  37  70 NE8       30.21S
$$

WIZ003>005-009-010-017-018-011500-
NORTH CENTRAL WISCONSIN

CITY           SKY/WX    TMP DP  RH WIND       PRES   REMARKS
MANITOWISH WTR MOSUNNY   43  37  78 NE6       30.17R
ARBOR VITAE    SUNNY     44  36  72 NE7       30.15S
WOODRUFF       SUNNY     44  36  72 NE7       30.15S
RHINELANDER    MOSUNNY   44  34  67 NE7       30.15R
EAGLE RIVER    MOSUNNY   45  33  62 N6        30.15R
LAND O LAKES   MOSUNNY   43  35  73 NE7       30.17R
PHILLIPS       MOSUNNY   43  36  74 N9        30.15S
TOMAHAWK       CLOUDY    43  34  71 N8        30.15R
MEDFORD        CLOUDY    44  36  73 N9        30.12S
MERRILL        CLOUDY   N/A N/A N/A N8        30.13S
$$

WIZ029-030-035-036-043>047-011500-
CENTRAL WISCONSIN

CITY           SKY/WX    TMP DP  RH WIND       PRES   REMARKS
WAUSAU         CLOUDY    48  33  56 NE7       30.11R
MOSINEE        MOSUNNY   45  34  65 NE8       30.12R
MARSHFIELD     CLOUDY    47  35  63 NE9       30.11R
STEVENS POINT  CLOUDY    44  32  64 NE8       30.11R
WAUPACA        CLOUDY    47  37  67 NE5       30.11R
WAUTOMA        LGT RAIN  45  36  70 NE8       30.10
WISC RAPIDS    CLOUDY    46  32  58 NE10      30.12R
CAMP DOUGLAS   CLOUDY    46  43  87 NE8       30.09R
$$

WIZ011>013-019>022-031-037>040-048>050-011500-
NORTHEAST WISCONSIN

CITY           SKY/WX    TMP DP  RH WIND       PRES   REMARKS
ANTIGO         CLOUDY    44  35  70 NE3       30.13R
SHAWANO        CLOUDY    47  35  62 NE6       30.12S
OCONTO         CLOUDY    45  36  71 N8        30.11S
STURGEON BAY   CLOUDY    45  36  70 N8        30.13S
GREEN BAY      LGT RAIN  45  39  79 NE10      30.10R
MANITOWOC      CLOUDY    44  38  79 NE12G25   30.09R
APPLETON       CLOUDY    45  36  70 NE9       30.08R
CLINTONVILLE   CLOUDY    45  34  65 NE8       30.11R
OSHKOSH        CLOUDY    45  39  79 NE9       30.09R
$$

WIZ032>034-041-042-053>061-011500-
SOUTHWEST WISCONSIN

CITY           SKY/WX    TMP DP  RH WIND       PRES   REMARKS
LA CROSSE      CLOUDY    48  35  60 NE8       30.10R
SPARTA         CLOUDY    47  36  67 NE8       30.11R
VIROQUA        CLOUDY    45  37  73 NE9       30.07S
BOSCOBEL       CLOUDY    48  40  73 NE8       30.06S
PRAIRIE DU CHI CLOUDY    47  38  71 NE8G21    30.05S
PLATTEVILLE    CLOUDY    44  43  95 NE16      30.02S
$$

WIZ056-057-062-063-064-067-068-011500-
SOUTH CENTRAL WISCONSIN

CITY           SKY/WX    TMP DP  RH WIND       PRES   REMARKS
REEDSBURG      CLOUDY    44  37  75 NE6       30.07R
BARABOO/DELLS  CLOUDY    44  36  74 NE7       30.07R
LONE ROCK      CLOUDY    47  38  71 NE12      30.06R
MINERAL POINT  CLOUDY    45  43  93 NE15G21   30.03R
MADISON        CLOUDY    46  40  79 NE12      30.05R
MIDDLETON      CLOUDY    46  40  79 NE9       30.05S
WATERTOWN      CLOUDY    44  41  89 NE8       30.04R
MONROE         CLOUDY    43  43 100 NE14G20   30.02R
JANESVILLE     CLOUDY    45  45 100 NE14      30.02R
$$

WIZ051-052-058>065-066-070>072-011500-
SOUTHEAST WISCONSIN

CITY           SKY/WX    TMP DP  RH WIND       PRES   REMARKS
MILWAUKEE      CLOUDY    42  40  92 N15G28    30.04R
WAUKESHA       RAIN      39  39 100 NE10      30.05R FOG     WCI  32
MILWAUKEE/TIMM CLOUDY    43  39  87 NE12G24   30.05R
RACINE         LGT RAIN  43  40  89 N15       30.05R FOG
BURLINGTON     DRIZZLE   42  42  99 NE14G22   30.01F
KENOSHA        LGT RAIN  44  42  93 NE12      30.02R VSB 3/4
FOND DU LAC    CLOUDY    45  40  82 NE12      30.08R
SHEBOYGAN      CLOUDY    43  40  89 NE10      30.07S
WEST BEND      CLOUDY    41  39  93 NE10      30.06R FOG
JUNEAU         CLOUDY    44  38  81 NE13G18   30.06S
$$

LSZ147-162-011500-
LAKE SUPERIOR

STATION/POSITION TIME  TEMP    WIND        PRES    WAVE
                       AIR SEA DIR/SP/G            HT/PER
                 (UTC) (F)     (DEG/KT/KT) (MB)    (FT/S)
W MID LAKE BUOY  1350   38 37   40/ 14/ 16 1025.0R   3/ 5
DEVILS ISLAND    1400   39      40/ 12/ 14 1025.6R
SAXON HARBOR     1300   39      40/  9/ 10 1023.4R
$$

LMZ867-665-643>646-011500-
LAKE MICHIGAN

STATION/POSITION TIME  TEMP    WIND        PRES    WAVE
                       AIR SEA DIR/SP/G            HT/PER
                 (UTC) (F)     (DEG/KT/KT) (MB)    (FT/S)
CHAMBERS ISLAND  1300   42     340/  9/ 10 1019.6R
N MID LAKE BUOY  1350   40 39   50/ 12/ 14 1019.8R   1/ 3
NORTHPORT PIER   1300   45      30/  7/ 11 1019.3S
ALGOMA LAKESHORE 1300           20/  8/ 11   N/A
KEWAUNEE LAKESHO 1300   43      20/ 11/ 14 1018.1R
SHEBOYGAN LAKESH 1400   41      10/ 16/ 17 1019.0R
PORT WASHINGTON  1300   43      30/ 17/ 23 1018.6
S MID LAKE BUOY  1350   42 40   40/ 14/ 16 1016.0R   3/ 4
KENOSHA   LAKESH 1400   42      20/ 18/ 22 1016.6R
$$

TC  - TEMPERATURE IN CELSIUS
VSB - VISIBILITY IN STATUTE MILES
WCI - WIND CHILL INDEX
HX  - HEAT INDEX





USA.gov is the U.S. government's official web portal to all federal, state and local government web resources and services.